N6OIM Weather Reports


Display with metric or nautical units.
time (UTC)temp
F
wind
direction
speed
MPH
gust
MPH
rain 1hr
in
rain 24hr
in
rain mn
in
humidity
%
barometer
mb
20260901005825 79 157 0.0 0.0 0.00 0.00 0.00 44 1009.0
20260901005335 79 187 0.0 0.0 0.00 0.00 0.00 44 1009.1
20260901004823 79 149 0.0 0.0 0.00 0.00 0.00 44 1009.1
20260901004332 79 144 0.0 0.0 0.00 0.00 0.00 44 1009.0
20260901003819 79 226 0.0 0.0 0.00 0.00 0.00 43 1009.1
20260901003328 79 236 0.0 0.0 0.00 0.00 0.00 43 1009.1
20260901002836 79 208 0.0 0.0 0.00 0.00 0.00 43 1009.2
20260901002329 79 242 0.0 0.0 0.00 0.00 0.00 43 1009.1
20260901001817 79 198 0.0 0.0 0.00 0.00 0.00 43 1009.1
20260901001327 79 224 0.0 0.0 0.00 0.00 0.00 43 1009.1
20260901000836 79 235 0.0 0.0 0.00 0.00 0.00 43 1009.1
20260901000328 79 237 0.0 0.0 0.00 0.00 0.00 44 1009.0
20260831235833 79 223 0.0 0.0 0.00 0.00 0.00 44 1009.1
20260831235324 80 222 0.0 0.0 0.00 0.00 0.00 43 1009.1
20260831234833 80 196 0.0 0.0 0.00 0.00 0.00 44 1009.1
20260831234323 80 171 0.0 0.0 0.00 0.00 0.00 43 1009.1
20260831233818 80 245 0.0 0.0 0.00 0.00 0.00 43 1009.1
20260831233331 80 240 0.0 0.0 0.00 0.00 0.00 43 1009.2
20260831232820 80 213 0.0 0.0 0.00 0.00 0.00 43 1009.2
20260831232330 80 192 0.0 0.0 0.00 0.00 0.00 43 1009.3
20260831231819 80 234 0.0 0.0 0.00 0.00 0.00 43 1009.3
20260831231331 81 225 0.0 0.0 0.00 0.00 0.00 43 1009.4
20260831230821 81 230 0.0 0.0 0.00 0.00 0.00 43 1009.4
20260831230331 81 240 0.0 0.0 0.00 0.00 0.00 43 1009.5
20260831225822 81 160 0.0 0.0 0.00 0.00 0.00 43 1009.5
20260831225330 80 229 0.0 0.0 0.00 0.00 0.00 44 1009.5
20260831224818 80 229 0.0 0.0 0.00 0.00 0.00 43 1009.6
20260831224327 80 230 0.0 0.0 0.00 0.00 0.00 44 1009.6
20260831223815 80 220 0.0 0.0 0.00 0.00 0.00 43 1009.7
20260831223327 80 244 0.0 0.0 0.00 0.00 0.00 43 1009.7
20260831222816 80 240 0.0 0.0 0.00 0.00 0.00 44 1009.7
20260831222325 80 215 0.0 0.0 0.00 0.00 0.00 43 1009.7
20260831221813 80 242 0.0 0.0 0.00 0.00 0.00 43 1009.9
20260831221329 80 242 0.0 0.0 0.00 0.00 0.00 43 1010.0
20260831220820 79 228 0.0 0.0 0.00 0.00 0.00 43 1010.1
20260831220330 79 230 0.0 0.0 0.00 0.00 0.00 44 1010.1
20260831215821 79 235 0.0 0.0 0.00 0.00 0.00 44 1010.0
20260831215330 79 236 0.0 0.0 0.00 0.00 0.00 43 1010.1
20260831214819 79 237 0.0 0.0 0.00 0.00 0.00 45 1010.2
20260831214331 78 231 0.0 0.0 0.00 0.00 0.00 44 1010.2
20260831213821 78 223 0.0 0.0 0.00 0.00 0.00 44 1010.1
20260831213332 78 233 0.0 0.0 0.00 0.00 0.00 45 1010.2
20260831212824 78 237 0.0 0.0 0.00 0.00 0.00 45 1010.2
20260831212332 78 234 0.0 0.0 0.00 0.00 0.00 45 1010.2
20260831211820 78 232 0.0 0.0 0.00 0.00 0.00 46 1010.5
20260831211330 78 249 0.0 0.0 0.00 0.00 0.00 45 1010.4
20260831210818 77 233 0.0 0.0 0.00 0.00 0.00 46 1010.5
20260831210328 77 234 0.0 0.0 0.00 0.00 0.00 46 1010.4
20260831205817 77 169 0.0 0.0 0.00 0.00 0.00 46 1010.5
20260831205326 77 214 0.0 0.0 0.00 0.00 0.00 48 1010.5
20260831204819 76 232 0.0 0.0 0.00 0.00 0.00 50 1010.4
20260831204329 76 232 0.0 0.0 0.00 0.00 0.00 49 1010.5
20260831203818 76 232 0.0 0.0 0.00 0.00 0.00 49 1010.5
20260831203327 76 232 0.0 0.0 0.00 0.00 0.00 49 1010.5
20260831202835 75 224 0.0 0.0 0.00 0.00 0.00 49 1010.5
20260831202325 75 159 0.0 0.0 0.00 0.00 0.00 49 1010.7
20260831201817 75 168 0.0 0.0 0.00 0.00 0.00 48 1010.7
20260831201328 75 211 0.0 0.0 0.00 0.00 0.00 48 1010.8
20260831200820 75 133 0.0 0.0 0.00 0.00 0.00 50 1010.8
20260831200335 75 184 0.0 0.0 0.00 0.00 0.00 49 1010.9
20260831195823 74 194 0.0 0.0 0.00 0.00 0.00 51 1010.8
20260831195331 74 152 0.0 0.0 0.00 0.00 0.00 52 1010.9
20260831194822 74 203 0.0 0.0 0.00 0.00 0.00 52 1011.0
20260831194314 73 159 0.0 0.0 0.00 0.00 0.00 53 1011.0
20260831193825 73 172 0.0 0.0 0.00 0.00 0.00 53 1011.2
20260831193314 73 252 0.0 0.0 0.00 0.00 0.00 54 1011.2
20260831192826 72 253 0.0 0.0 0.00 0.00 0.00 54 1011.2
20260831192321 72 258 0.0 0.0 0.00 0.00 0.00 54 1011.3
20260831191830 72 252 0.0 0.0 0.00 0.00 0.00 54 1011.2
20260831191319 72 256 0.0 0.0 0.00 0.00 0.00 55 1011.2
20260831190827 71 254 0.0 0.0 0.00 0.00 0.00 55 1011.3
20260831190335 71 255 0.0 0.0 0.00 0.00 0.00 55 1011.3
20260831185823 71 259 0.0 0.0 0.00 0.00 0.00 55 1011.2
20260831185331 71 250 0.0 0.0 0.00 0.00 0.00 55 1011.2
20260831184819 71 260 0.0 0.0 0.00 0.00 0.00 54 1011.2
20260831184332 71 263 0.0 0.0 0.00 0.00 0.00 55 1011.2
20260831183827 71 263 0.0 0.0 0.00 0.00 0.00 56 1011.2
20260831183316 71 232 0.0 0.0 0.00 0.00 0.00 57 1011.2
20260831182825 71 244 0.0 0.0 0.00 0.00 0.00 57 1011.2
20260831182333 71 199 0.0 0.0 0.00 0.00 0.00 57 1011.3
20260831181823 70 195 0.0 0.0 0.00 0.00 0.00 56 1011.3
20260831181332 70 238 0.0 0.0 0.00 0.00 0.00 57 1011.2
20260831180820 70 230 0.0 0.0 0.00 0.00 0.00 57 1011.2
20260831180329 70 188 0.0 0.0 0.00 0.00 0.00 58 1011.2
20260831175817 70 237 0.0 0.0 0.00 0.00 0.00 58 1011.3
20260831175331 70 191 0.0 0.0 0.00 0.00 0.00 59 1011.3
20260831174820 70 208 0.0 0.0 0.00 0.00 0.00 59 1011.3
20260831174329 70 203 0.0 0.0 0.00 0.00 0.00 59 1011.2
20260831173821 70 230 0.0 0.0 0.00 0.00 0.00 59 1011.2
20260831173330 70 205 0.0 0.0 0.00 0.00 0.00 59 1011.2
20260831172820 69 196 0.0 0.0 0.00 0.00 0.00 59 1011.1
20260831172329 69 250 0.0 0.0 0.00 0.00 0.00 60 1011.1
20260831171817 69 207 0.0 0.0 0.00 0.00 0.00 61 1011.1
20260831171329 69 215 0.0 0.0 0.00 0.00 0.00 61 1011.1
20260831170822 69 209 0.0 0.0 0.00 0.00 0.00 60 1011.0
20260831170332 68 146 0.0 0.0 0.00 0.00 0.00 61 1011.0
20260831165820 68 137 0.0 0.0 0.00 0.00 0.00 62 1011.0
20260831165329 68 186 0.0 0.0 0.00 0.00 0.00 62 1011.0
20260831164817 68 178 0.0 0.0 0.00 0.00 0.00 63 1011.0
20260831164326 67 194 0.0 0.0 0.00 0.00 0.00 63 1011.0
20260831163835 67 192 0.0 0.0 0.00 0.00 0.00 64 1011.0
20260831163323 67 167 0.0 0.0 0.00 0.00 0.00 65 1010.9
20260831162816 66 180 0.0 0.0 0.00 0.00 0.00 66 1011.0
20260831162329 66 182 0.0 0.0 0.00 0.00 0.00 66 1011.0
20260831161821 66 182 0.0 0.0 0.00 0.00 0.00 67 1011.0
20260831161329 65 182 0.0 0.0 0.00 0.00 0.00 67 1011.0
20260831160817 65 178 0.0 0.0 0.00 0.00 0.00 67 1011.0
20260831160326 65 176 0.0 0.0 0.00 0.00 0.00 68 1011.1
20260831155835 65 148 0.0 0.0 0.00 0.00 0.00 69 1011.1
20260831155324 64 150 0.0 0.0 0.00 0.00 0.00 70 1011.1
20260831154832 64 153 0.0 0.0 0.00 0.00 0.00 70 1011.1
20260831154324 64 153 0.0 0.0 0.00 0.00 0.00 71 1011.1
20260831153813 63 169 0.0 0.0 0.00 0.00 0.00 71 1011.0
20260831153326 63 171 0.0 0.0 0.00 0.00 0.00 72 1011.0
20260831152817 63 155 0.0 0.0 0.00 0.00 0.00 73 1010.9
20260831152329 62 154 0.0 0.0 0.00 0.00 0.00 75 1010.9
20260831151820 62 153 0.0 0.0 0.00 0.00 0.00 76 1010.8
20260831151330 61 155 0.0 0.0 0.00 0.00 0.00 77 1010.9
20260831150819 61 155 0.0 0.0 0.00 0.00 0.00 78 1010.8
20260831150328 60 155 0.0 0.0 0.00 0.00 0.00 80 1010.8
20260831145822 60 155 0.0 0.0 0.00 0.00 0.00 80 1010.7
20260831145331 60 155 0.0 0.0 0.00 0.00 0.00 81 1010.7
20260831144822 59 155 0.0 0.0 0.00 0.00 0.00 81 1010.7
20260831144332 59 155 0.0 0.0 0.00 0.00 0.00 81 1010.6
20260831143820 59 155 0.0 0.0 0.00 0.00 0.00 81 1010.6
20260831143330 58 155 0.0 0.0 0.00 0.00 0.00 81 1010.5
20260831142818 58 155 0.0 0.0 0.00 0.00 0.00 81 1010.4
20260831142331 58 155 0.0 0.0 0.00 0.00 0.00 80 1010.4
20260831141827 58 155 0.0 0.0 0.00 0.00 0.00 80 1010.3
20260831141317 58 155 0.0 0.0 0.00 0.00 0.00 79 1010.3
20260831140825 58 155 0.0 0.0 0.00 0.00 0.00 79 1010.2
20260831140334 58 155 0.0 0.0 0.00 0.00 0.00 79 1010.1
20260831135822 58 155 0.0 0.0 0.00 0.00 0.00 78 1010.1
20260831135331 58 155 0.0 0.0 0.00 0.00 0.00 78 1010.0
20260831134823 58 155 0.0 0.0 0.00 0.00 0.00 78 1010.0
20260831134332 59 155 0.0 0.0 0.00 0.00 0.00 78 1009.9
20260831133820 59 155 0.0 0.0 0.00 0.00 0.00 77 1009.8
20260831133333 59 155 0.0 0.0 0.00 0.00 0.00 77 1009.7
20260831132821 59 155 0.0 0.0 0.00 0.00 0.00 77 1009.7
20260831132329 59 155 0.0 0.0 0.00 0.00 0.00 77 1009.7
20260831131836 59 155 0.0 0.0 0.00 0.00 0.00 76 1009.7
20260831131324 59 155 0.0 0.0 0.00 0.00 0.00 76 1009.6
20260831130832 60 155 0.0 0.0 0.00 0.00 0.00 76 1009.6
20260831130321 60 155 0.0 0.0 0.00 0.00 0.00 75 1009.5
20260831125828 60 155 0.0 0.0 0.00 0.00 0.00 75 1009.5
20260831125317 60 155 0.0 0.0 0.00 0.00 0.00 74 1009.4
20260831124829 60 155 0.0 0.0 0.00 0.00 0.00 74 1009.3
20260831124318 60 155 0.0 0.0 0.00 0.00 0.00 73 1009.4
20260831123826 60 155 0.0 0.0 0.00 0.00 0.00 73 1009.2
20260831123336 60 155 0.0 0.0 0.00 0.00 0.00 73 1009.3
20260831122825 60 155 0.0 0.0 0.00 0.00 0.00 73 1009.3
20260831122335 61 155 0.0 0.0 0.00 0.00 0.00 73 1009.3
20260831121823 61 154 0.0 0.0 0.00 0.00 0.00 72 1009.3
20260831121333 61 154 0.0 0.0 0.00 0.00 0.00 72 1009.3
20260831120821 61 153 0.0 0.0 0.00 0.00 0.00 71 1009.2
20260831120314 61 154 0.0 0.0 0.00 0.00 0.00 71 1009.2
20260831115825 61 153 0.0 0.0 0.00 0.00 0.00 71 1009.2
20260831115335 61 154 0.0 0.0 0.00 0.00 0.00 70 1009.1
20260831114824 61 154 0.0 0.0 0.00 0.00 0.00 70 1009.2
20260831114333 61 154 0.0 0.0 0.00 0.00 0.00 70 1009.1
20260831113329 62 153 0.0 0.0 0.00 0.00 0.00 68 1009.0
20260831112818 62 153 0.0 0.0 0.00 0.00 0.00 68 1009.0
20260831112330 62 154 0.0 0.0 0.00 0.00 0.00 68 1009.1
20260831111822 62 154 0.0 0.0 0.00 0.00 0.00 67 1009.2
20260831111331 62 153 0.0 0.0 0.00 0.00 0.00 67 1009.1
20260831110821 62 154 0.0 0.0 0.00 0.00 0.00 67 1009.2
20260831110330 62 154 0.0 0.0 0.00 0.00 0.00 67 1009.2
20260831105819 62 153 0.0 0.0 0.00 0.00 0.00 67 1009.2
20260831105328 62 154 0.0 0.0 0.00 0.00 0.00 66 1009.3
20260831104817 63 154 0.0 0.0 0.00 0.00 0.00 66 1009.3
20260831104325 63 154 0.0 0.0 0.00 0.00 0.00 66 1009.2
20260831103814 63 154 0.0 0.0 0.00 0.00 0.00 66 1009.2
20260831103331 63 153 0.0 0.0 0.00 0.00 0.00 65 1009.2
20260831102820 63 154 0.0 0.0 0.00 0.00 0.00 65 1009.2
20260831102332 63 154 0.0 0.0 0.00 0.00 0.00 65 1009.1
20260831101820 63 154 0.0 0.0 0.00 0.00 0.00 65 1009.1
20260831101332 63 153 0.0 0.0 0.00 0.00 0.00 65 1009.1
20260831100823 63 154 0.0 0.0 0.00 0.00 0.00 65 1009.0
20260831100333 64 154 0.0 0.0 0.00 0.00 0.00 64 1009.0
20260831095821 64 153 0.0 0.0 0.00 0.00 0.00 64 1009.0
20260831095330 64 154 0.0 0.0 0.00 0.00 0.00 64 1008.9
20260831094823 64 153 0.0 0.0 0.00 0.00 0.00 63 1008.9
20260831094332 64 154 0.0 0.0 0.00 0.00 0.00 62 1008.9
20260831093822 64 153 0.0 0.0 0.00 0.00 0.00 62 1008.9
20260831093331 65 153 0.0 0.0 0.00 0.00 0.00 62 1009.0
20260831092822 65 154 0.0 0.0 0.00 0.00 0.00 62 1009.0
20260831092331 65 154 0.0 0.0 0.00 0.00 0.00 62 1009.0
20260831091820 65 154 0.0 0.0 0.00 0.00 0.00 62 1009.1
20260831091330 65 154 0.0 0.0 0.00 0.00 0.00 62 1009.1
20260831090823 65 154 0.0 0.0 0.00 0.00 0.00 61 1009.1
20260831090332 66 154 0.0 0.0 0.00 0.00 0.00 60 1009.1
20260831085820 66 154 0.0 0.0 0.00 0.00 0.00 60 1009.0
20260831085329 66 154 0.0 0.0 0.00 0.00 0.00 60 1009.0
20260831084817 66 154 0.0 0.0 0.00 0.00 0.00 59 1009.0
20260831084325 66 154 0.0 0.0 0.00 0.00 0.00 60 1009.0
20260831083833 67 153 0.0 0.0 0.00 0.00 0.00 59 1009.1
20260831083321 67 154 0.0 0.0 0.00 0.00 0.00 59 1009.0
20260831082829 67 153 0.0 0.0 0.00 0.00 0.00 59 1009.1
20260831082324 67 154 0.0 0.0 0.00 0.00 0.00 59 1009.1
20260831081831 67 154 0.0 0.0 0.00 0.00 0.00 59 1009.1
20260831081320 67 154 0.0 0.0 0.00 0.00 0.00 59 1009.1
20260831080831 67 154 0.0 0.0 0.00 0.00 0.00 59 1009.1
20260831080322 67 153 0.0 0.0 0.00 0.00 0.00 58 1009.1
20260831075830 68 154 0.0 0.0 0.00 0.00 0.00 58 1009.1
20260831075318 68 153 0.0 0.0 0.00 0.00 0.00 58 1009.2
20260831074829 68 153 0.0 0.0 0.00 0.00 0.00 58 1009.2
20260831074318 68 153 0.0 0.0 0.00 0.00 0.00 57 1009.0
20260831073830 68 153 0.0 0.0 0.00 0.00 0.00 57 1008.9
20260831073319 68 153 0.0 0.0 0.00 0.00 0.00 57 1009.0
20260831072830 68 153 0.0 0.0 0.00 0.00 0.00 57 1008.9
20260831072323 69 153 0.0 0.0 0.00 0.00 0.00 57 1009.0
20260831071831 69 153 0.0 0.0 0.00 0.00 0.00 56 1008.9
20260831071324 69 153 0.0 0.0 0.00 0.00 0.00 56 1009.0
20260831070833 69 153 0.0 0.0 0.00 0.00 0.00 56 1008.9
20260831070326 69 153 0.0 0.0 0.00 0.00 0.00 56 1009.0
20260831065822 69 153 0.0 0.0 0.00 0.00 0.00 56 1009.0
20260831065331 70 156 0.0 0.0 0.00 0.00 0.00 56 1009.0
20260831064820 70 156 0.0 0.0 0.00 0.00 0.00 55 1009.1
20260831064330 70 157 0.0 0.0 0.00 0.00 0.00 55 1009.1
20260831063818 70 157 0.0 0.0 0.00 0.00 0.00 55 1009.1
20260831063331 70 157 0.0 0.0 0.00 0.00 0.00 54 1009.1
20260831062821 70 201 0.0 0.0 0.00 0.00 0.00 54 1009.1
20260831062330 71 203 0.0 0.0 0.00 0.00 0.00 54 1009.1
20260831061818 71 218 0.0 0.0 0.00 0.00 0.00 53 1009.2
20260831061331 71 219 0.0 0.0 0.00 0.00 0.00 53 1009.1
20260831060820 71 220 0.0 0.0 0.00 0.00 0.00 52 1009.2
20260831060331 71 221 0.0 0.0 0.00 0.00 0.00 52 1009.2
20260831055823 72 222 0.0 0.0 0.00 0.00 0.00 52 1009.2
20260831055332 72 222 0.0 0.0 0.00 0.00 0.00 52 1009.2
20260831054820 72 222 0.0 0.0 0.00 0.00 0.00 51 1009.2
20260831054329 72 223 0.0 0.0 0.00 0.00 0.00 51 1009.1
20260831053819 73 222 0.0 0.0 0.00 0.00 0.00 51 1009.1
20260831053328 73 223 0.0 0.0 0.00 0.00 0.00 50 1009.1
20260831052821 73 223 0.0 0.0 0.00 0.00 0.00 49 1009.0
20260831052331 74 223 0.0 0.0 0.00 0.00 0.00 49 1009.1
20260831051819 74 226 0.0 0.0 0.00 0.00 0.00 48 1009.1
20260831051331 74 238 0.0 0.0 0.00 0.00 0.00 48 1009.1
20260831050821 75 239 0.0 0.0 0.00 0.00 0.00 48 1009.0
20260831050330 75 240 0.0 0.0 0.00 0.00 0.00 47 1009.0
20260831045823 76 241 0.0 0.0 0.00 0.00 0.00 46 1009.0
20260831045333 76 242 0.0 0.0 0.00 0.00 0.00 45 1008.9
20260831044823 76 244 0.0 0.0 0.00 0.00 0.00 44 1008.7
20260831044333 77 244 0.0 0.0 0.00 0.00 0.00 43 1008.7
20260831043822 77 244 0.0 0.0 0.00 0.00 0.00 42 1008.9
20260831043331 77 244 0.0 0.0 0.00 0.00 0.00 41 1008.8
20260831042821 78 244 0.0 0.0 0.00 0.00 0.00 40 1008.6
20260831042330 78 244 0.0 0.0 0.00 0.00 0.00 39 1008.6
20260831041821 78 244 0.0 0.0 0.00 0.00 0.00 38 1008.4
20260831041334 78 244 0.0 0.0 0.00 0.00 0.00 38 1008.5
20260831040823 79 244 0.0 0.0 0.00 0.00 0.00 37 1008.3
20260831040314 79 244 0.0 0.0 0.00 0.00 0.00 36 1008.2
20260831035825 79 244 0.0 0.0 0.00 0.00 0.00 36 1008.3
20260831035334 80 244 0.0 0.0 0.00 0.00 0.00 36 1008.1
20260831034822 80 244 0.0 0.0 0.00 0.00 0.00 36 1008.1
20260831034331 80 244 0.0 0.0 0.00 0.00 0.00 36 1008.2
20260831033818 81 244 0.0 0.0 0.00 0.00 0.00 36 1008.0
20260831033327 81 244 0.0 0.0 0.00 0.00 0.00 35 1008.0
20260831032816 81 244 0.0 0.0 0.00 0.00 0.00 35 1008.0
20260831032326 82 244 0.0 0.0 0.00 0.00 0.00 35 1007.9
20260831031818 82 244 0.0 0.0 0.00 0.00 0.00 34 1007.9
20260831031328 83 244 0.0 0.0 0.00 0.00 0.00 34 1007.9
20260831030817 83 244 0.0 0.0 0.00 0.00 0.00 33 1008.0
20260831030327 84 244 0.0 0.0 0.00 0.00 0.00 32 1008.0
20260831025818 84 244 0.0 0.0 0.00 0.00 0.00 31 1007.9
20260831025327 85 244 0.0 0.0 0.00 0.00 0.00 31 1007.9
20260831024835 86 244 0.0 0.0 0.00 0.00 0.00 31 1007.8
20260831024322 86 244 0.0 0.0 0.00 0.00 0.00 31 1007.8
20260831023819 87 244 0.0 0.0 0.00 0.00 0.00 30 1007.8
20260831023329 87 244 0.0 0.0 0.00 0.00 0.00 30 1007.6
20260831022817 88 244 0.0 0.0 0.00 0.00 0.00 30 1007.6
20260831022327 88 244 0.0 0.0 0.00 0.00 0.00 29 1007.6
20260831021835 89 244 0.0 0.0 0.00 0.00 0.00 29 1007.7
20260831021324 89 244 0.0 0.0 0.00 0.00 0.00 29 1007.6
20260831020836 90 244 0.0 0.0 0.00 0.00 0.00 28 1007.6
20260831020324 90 244 0.0 0.0 0.00 0.00 0.00 28 1007.7
20260831015836 91 244 0.0 0.0 0.00 0.00 0.00 27 1007.6
20260831015330 91 244 0.0 0.0 0.00 0.00 0.00 27 1007.6
20260831014817 91 244 0.0 0.0 0.00 0.00 0.00 27 1007.6
20260831014326 92 244 0.0 0.0 0.00 0.00 0.00 26 1007.7
20260831013835 92 244 0.0 0.0 0.00 0.00 0.00 26 1007.7
20260831013323 92 244 0.0 0.0 0.00 0.00 0.00 25 1007.7
20260831012831 93 244 0.0 0.0 0.00 0.00 0.00 25 1007.7
20260831012321 94 244 0.0 0.0 0.00 0.00 0.00 25 1007.7
20260831011829 94 244 0.0 0.0 0.00 0.00 0.00 24 1007.8
20260831011318 94 244 0.0 0.0 0.00 0.00 0.00 24 1007.8
20260831010834 94 244 0.0 0.0 0.00 0.00 0.00 24 1007.8
20260831010323 95 244 0.0 0.0 0.00 0.00 0.00 24 1007.8